Weather History for KNEW - November, 2011

Change the Weather History Date:

Friday, November 4, 2011

  Actual Average Record
Temperature  
Mean Temperature 56 °F 66 °F  
Max Temperature 65 °F 75 °F 85 °F (1946)
Min Temperature 47 °F 57 °F 32 °F (1966)
Degree Days  
Heating Degree Days 9 3  
Month to date heating degree days 13 9  
Since 1 July heating degree days 41 34  
Cooling Degree Days 0 3  
Month to date cooling degree days 5 15  
Year to date cooling degree days 3361 2924  
Growing Degree Days 8 (Base 50)    
Moisture  
Dew Point 43 °F    
Average Humidity 60    
Maximum Humidity 72    
Minimum Humidity 48    
Precipitation  
Precipitation 0.00 in 0.14 in 3.44 in (1992)
Month to date precipitation 0.02 0.54  
Year to date precipitation 50.17 53.26  
Snow  
Snow 0.00 in - - ()
Month to date snowfall 0.0  
Since 1 July snowfall 0.0  
Since 1 September snowfall 0.0  
Snow Depth 0.00 in    
Sea Level Pressure  
Sea Level Pressure 30.11 in    
Wind  
Wind Speed 11 mph (North)    
Max Wind Speed 20 mph    
Max Gust Speed 24 mph    
Visibility 10 miles    
Events      
T = Trace of Precipitation, MM = Missing Value Source: NWS Daily Summary

Daily Weather History Graph

Daily Weather History Graph

Search for Another Location

Airport or City:

Trip Planner

Search our weather history database for the weather conditions in past years. The results will help you decide how hot, cold, wet, or windy it might be!

Date:

Astronomy

Nov. 04, 2011 Rise Set
Actual Time 7:16 AM CDT 6:10 PM CDT
Civil Twilight 6:51 AM CDT 6:35 PM CDT
Nautical Twilight 6:22 AM CDT 7:04 PM CDT
Astronomical Twilight 5:54 AM CDT 7:32 PM CDT
Moon 2:41 PM CDT (11/4) 1:52 AM CDT (11/4)
Length of Visible Light 11h 44m
Length of Day
10h 54m
Waxing Gibbous, 69% of the Moon is Illuminated
Nov 4
Waxing Gibbous
Nov 10
Full
Nov 18
Last Quarter
Nov 25
New
Dec 2
First Quarter

Hourly Weather History & Observations

Time (CDT) Temp. Dew Point Humidity Pressure Visibility Wind Dir Wind Speed Gust Speed Precip Events Conditions
12:53 AM 55.9 °F 41.0 °F 57% 30.12 in 10.0 mi NNW 17.3 mph - N/A   Clear
1:53 AM 55.9 °F 39.9 °F 55% 30.11 in 10.0 mi NNW 17.3 mph - N/A   Clear
2:53 AM 55.4 °F 39.2 °F 54% 30.12 in 10.0 mi NW 17.3 mph - N/A   Clear
3:53 AM 55.0 °F 39.0 °F 55% 30.09 in 10.0 mi NNW 18.4 mph - N/A   Clear
4:53 AM 54.0 °F 39.9 °F 59% 30.10 in 10.0 mi NNW 18.4 mph - N/A   Clear
5:53 AM 52.0 °F 39.9 °F 63% 30.12 in 10.0 mi North 18.4 mph - N/A   Clear
6:53 AM 52.0 °F 39.9 °F 63% 30.12 in 10.0 mi North 20.7 mph - N/A   Clear
7:53 AM 52.0 °F 39.9 °F 63% 30.14 in 10.0 mi North 17.3 mph - N/A   Clear
8:53 AM 54.0 °F 41.0 °F 62% 30.15 in 10.0 mi North 17.3 mph - N/A   Clear
9:53 AM 55.0 °F 42.1 °F 62% 30.15 in 10.0 mi North 16.1 mph - N/A   Clear
10:53 AM 55.9 °F 43.0 °F 62% 30.15 in 10.0 mi North 11.5 mph - N/A   Clear
11:53 AM 59.0 °F 43.0 °F 55% 30.14 in 10.0 mi North 11.5 mph - N/A   Clear
12:53 PM 59.0 °F 45.0 °F 60% 30.12 in 10.0 mi WNW 9.2 mph - N/A   Clear
1:53 PM 63.0 °F 44.1 °F 50% 30.08 in 10.0 mi North 9.2 mph - N/A   Clear
2:53 PM 64.9 °F 45.0 °F 48% 30.06 in 10.0 mi North 11.5 mph - N/A   Clear
3:53 PM 64.0 °F 45.0 °F 50% 30.06 in 10.0 mi North 10.4 mph - N/A   Clear
4:53 PM 64.0 °F 44.1 °F 48% 30.07 in 10.0 mi North 9.2 mph - N/A   Clear
5:53 PM 62.1 °F 46.0 °F 56% 30.07 in 10.0 mi North 6.9 mph - N/A   Clear
6:53 PM 62.1 °F 46.9 °F 58% 30.09 in 10.0 mi NNE 18.4 mph - N/A   Clear
7:53 PM 60.1 °F 48.0 °F 64% 30.11 in 10.0 mi NE 16.1 mph - N/A   Clear
8:53 PM 59.0 °F 48.0 °F 67% 30.12 in 10.0 mi NE 17.3 mph - N/A   Clear
9:53 PM 57.9 °F 48.0 °F 70% 30.14 in 10.0 mi NNE 20.7 mph - N/A   Clear
10:53 PM 57.0 °F 46.9 °F 69% 30.14 in 10.0 mi NNE 21.9 mph - N/A   Clear
11:53 PM 57.0 °F 46.9 °F 69% 30.14 in 10.0 mi NNE 19.6 mph - N/A   Clear